Regional Weather Roundup
Issued by NWS Green Bay, WI

Home | Current Version | Previous Version | Graphics & Text | Print | Product List | Glossary Off
Versions: 1 2 3 4 5 6 7 8 9 10 11 12 13 14 15 16 17 18 19 20 21 22 23 24 25 26 27 28 29 30 31 32 33 34 35 36 37 38 39 40 41 42 43 44 45 46 47 48 49 50

000
ASUS43 KGRB 070300
RWRGRB

NORTH-CENTRAL AND NORTHEAST WISCONSIN REGIONAL WEATHER ROUNDUP
NATIONAL WEATHER SERVICE GREEN BAY WI
900 PM CST SAT FEB 06 2016

WIZ005-009-010>012-018-019-070400-
NORTH CENTRAL WISCONSIN

CITY           SKY/WX    TMP DP  RH WIND       PRES   REMARKS
IRONWOOD       CLOUDY    32  25  74 S8        29.73F
MANITOWISH WTR NOT AVBL
ARBOR VITAE    NOT AVBL
EAGLE RIVER    NOT AVBL
LAND O LAKES   NOT AVBL
RHINELANDER    CLOUDY    30  21  69 SW14      29.85F
PHILLIPS       NOT AVBL
ANTIGO         NOT AVBL
TOMAHAWK       NOT AVBL
MERRILL        NOT AVBL
$$

WIZ013-073-070400-
NORTHEAST WISCONSIN

CITY           SKY/WX    TMP DP  RH WIND       PRES   REMARKS
IRON MOUNTAIN  CLOUDY    29  22  75 S8        29.88F HAZE
MARINETTE      CLOUDY    28  25  86 SW14      29.95F
$$

WIZ017-030-035>037-045-070400-
CENTRAL WISCONSIN

CITY           SKY/WX    TMP DP  RH WIND       PRES   REMARKS
MEDFORD        NOT AVBL
WAUSAU         CLOUDY    32  23  69 S15       29.89F
MOSINEE        PTCLDY    28  25  86 S13       29.92F
MARSHFIELD     CLOUDY    31  21  66 S13       29.89F
WISC RAPIDS    CLOUDY    30  24  78 SW13      29.96F
STEVENS POINT  NOT AVBL
WAUPACA        NOT AVBL
SHAWANO        NOT AVBL
CLINTONVILLE   NOT AVBL
WAUTOMA        NOT AVBL
$$

WIZ038-039-048-051-070400-
FOX VALLEY

CITY           SKY/WX    TMP DP  RH WIND       PRES   REMARKS
NWS GREEN BAY  MOCLDY    30  25  81 S13       29.98F
APPLETON       CLOUDY    28  23  80 S12       29.97F
OSHKOSH        CLOUDY    28  23  81 S12       29.99F
FOND DU LAC    PTCLDY    29  25  85 SW14      30.00F
$$

WIZ022-050-052-070400-
EAST CENTRAL WISCONSIN

CITY           SKY/WX    TMP DP  RH WIND       PRES   REMARKS
EPHRAIM        NOT AVBL
STURGEON BAY   CLOUDY    28  21  74 S12       29.99F
MANITOWOC      NOT AVBL
SHEBOYGAN      CLOUDY    29  24  82 S7        30.02F
$$

LMZ563-521-522-541>543-070400-
LAKESHORE

STATION/POSITION TIME  TEMP    WIND        PRES    VSBY  WAVE
                       AIR SEA DIR/SP/G                  HT/PER
                 (UTC) (F)     (DEG/KT/KT) (MB)    (MI)  (FT/S)
SHEBOYGAN LKSHOR 0200   31     200/ 10/ 12 1018.7F
KEWAUNEE LKSHORE 0200   29     200/ 10/ 12 1016.1F
CHAMBERS ISLAND  0200   28     170/  6/ 13 1015.9F
MENOMINEE LKSHOR 0200   29     180/ 10     1014.4F
$$



USA.gov is the U.S. government's official web portal to all federal, state and local government web resources and services.